DateTimeUTC,F1_A11,F1_S11,BsB_S11,BsG_S11,BsR_S11,BbsB_S11,BbsG_S11,BbsR_S11,BaB_A11,BaG_A11,BaR_A11,Tu_S11,T_S11,Uu_S11,U_S11,P_S11,T1_A11
2021-02-02T23:00:00Z,00000200,21000000,,,,,,,-000.09,-000.33,-000.19,15.2,22.6,,00.0,0630.2,30.8
2021-02-02T23:01:00Z,00000200,21000000,,,,,,,-000.28,-000.27,-000.11,15.2,22.6,,00.0,0630.2,30.8
2021-02-02T23:02:00Z,00000200,21000000,,,,,,,0000.37,-000.08,-000.11,15.1,22.6,,00.0,0630.2,30.8
2021-02-02T23:03:00Z,00000200,61000000,,,,,,,0000.08,-000.08,0000.42,15.1,22.6,,00.0,0630.2,30.8
2021-02-02T23:04:00Z,00000200,41000000,0000.26,0000.10,0000.07,0000.19,0000.16,0000.06,0000.01,0000.38,0000.00,15.4,22.4,,00.0,0630.9,30.8
2021-02-02T23:05:00Z,00000200,01000000,-000.23,-000.21,0000.07,0000.45,-000.07,0000.30,0000.10,0000.19,0000.03,15.5,22.3,,00.0,0631.0,30.8
2021-02-02T23:06:00Z,00000200,01000000,0000.34,-000.09,-000.02,-000.36,0000.13,-000.04,-000.15,0000.19,0000.18,15.5,22.3,,00.0,0631.1,30.8
2021-02-02T23:07:00Z,00000200,01000000,-000.03,-000.03,-000.02,0000.55,0000.24,-000.05,0000.32,0000.44,-000.11,15.6,22.4,,00.0,0631.1,30.8
2021-02-02T23:08:00Z,00000200,01000000,-000.03,-000.20,0000.07,0000.54,0000.16,0000.02,0000.15,-000.11,0000.23,15.6,22.4,,00.0,0631.1,30.8
2021-02-02T23:09:00Z,00000200,01000000,0000.22,0000.19,0000.15,-000.11,0000.28,-000.02,-000.25,-000.04,0000.08,15.7,22.4,,00.0,0631.1,30.8
2021-02-02T23:10:00Z,00000200,01000000,0000.40,-000.05,0000.13,0000.41,0000.29,-000.07,0000.16,-000.32,-000.14,15.7,22.4,,00.0,0631.1,30.9
2021-02-02T23:11:00Z,00000200,01000000,0000.51,-000.00,0000.22,0000.72,0000.19,-000.12,0000.16,0000.14,-000.02,15.7,22.4,,00.0,0631.0,30.8
2021-02-02T23:12:00Z,00000200,01000000,-000.21,0000.32,0000.04,0000.37,0000.44,-000.04,0000.18,0000.41,0000.32,15.7,22.4,,00.0,0630.9,30.8
2021-02-02T23:13:00Z,00000200,01000000,0000.03,-000.11,0000.06,0000.30,0000.06,0000.06,-000.20,-000.03,-000.15,15.6,22.4,,00.0,0630.9,30.8
2021-02-02T23:14:00Z,00000200,01000000,0000.17,0000.45,0000.21,0000.27,0000.20,0000.10,0000.35,0000.24,0000.25,15.6,22.3,,00.0,0630.9,30.8
2021-02-02T23:15:00Z,00000200,01000000,-000.11,0000.09,-000.13,0000.07,0000.20,0000.18,0000.26,0000.03,0000.12,15.5,22.3,,00.0,0630.9,30.8
2021-02-02T23:16:00Z,00000200,01000000,0000.01,0000.32,0000.22,0000.43,0000.05,0000.12,-000.20,-000.12,0000.13,15.4,22.2,,00.0,0630.9,30.8
2021-02-02T23:17:00Z,00000200,01000000,0000.34,0000.09,0000.14,0000.31,0000.04,0000.13,0000.64,0000.52,0000.21,15.4,22.2,,00.0,0630.8,30.8
2021-02-02T23:18:00Z,00000200,01000000,0000.27,0000.08,0000.09,0000.49,0000.12,-000.21,0000.58,0000.08,-000.10,15.4,22.2,,00.0,0630.8,30.8
2021-02-02T23:19:00Z,00000200,01000000,0000.42,0000.20,-000.06,0000.01,0000.06,-000.02,-000.16,0000.15,0000.41,15.4,22.2,,00.0,0630.8,30.8
2021-02-02T23:20:00Z,00000200,01000000,0000.22,0000.04,0000.05,-000.47,0000.19,0000.20,0000.16,0000.57,0000.23,15.5,22.2,,00.0,0630.7,30.8
2021-02-02T23:21:00Z,00000200,01000000,-000.10,-000.00,0000.34,-000.20,-000.16,-000.05,0000.35,0000.16,-000.04,15.5,22.3,,00.0,0630.7,30.8
2021-02-02T23:22:00Z,00000200,01000000,0000.44,0000.29,0000.17,0000.44,0000.34,0000.38,0000.44,0000.50,0000.58,15.6,22.3,,00.0,0630.6,30.8
2021-02-02T23:23:00Z,00000200,01000000,-000.25,0000.11,0000.14,0000.12,0000.00,-000.07,-000.02,0000.11,-000.10,15.6,22.3,,00.0,0630.6,30.8
2021-02-02T23:24:00Z,00000200,01000000,0000.25,0000.12,0000.13,0000.26,0000.14,0000.09,0000.70,-000.18,0000.49,15.7,22.3,,00.0,0630.6,30.8
2021-02-02T23:25:00Z,00000200,01000000,0000.05,-000.01,-000.14,0000.05,0000.01,0000.31,0000.03,0000.50,-000.32,15.7,22.4,,00.0,0630.6,30.8
2021-02-02T23:26:00Z,00000200,01000000,-000.30,0000.26,0000.14,0000.16,0000.21,0000.25,-000.12,0000.50,0000.34,15.8,22.4,,00.0,0630.7,30.8
2021-02-02T23:27:00Z,00000200,01000000,0000.24,0000.07,0000.14,-000.38,0000.26,0000.04,0000.39,-000.13,-000.14,15.8,22.4,,00.0,0630.8,30.8
2021-02-02T23:28:00Z,00000200,01000000,0000.61,0000.17,0000.19,-000.41,0000.21,0000.33,-000.07,-000.07,0000.18,15.8,22.4,,00.0,0630.8,30.8
2021-02-02T23:29:00Z,00000200,01000000,0000.38,-000.06,0000.30,0000.02,0000.00,0000.21,-000.12,-000.04,-000.21,15.7,22.4,,00.0,0630.7,30.8
2021-02-02T23:30:00Z,00000200,01000000,0000.47,0000.08,-000.04,-000.23,-000.01,0000.07,-000.20,-000.09,-000.23,15.6,22.3,,00.0,0630.8,30.8
2021-02-02T23:31:00Z,00000200,01000000,-000.03,0000.29,0000.36,0000.05,0000.20,-000.06,0000.16,-000.17,0000.18,15.6,22.3,,00.0,0630.8,30.8
2021-02-02T23:32:00Z,00000200,01000000,0000.61,-000.29,-000.05,0000.04,0000.19,0000.02,0000.26,-000.03,0000.27,15.6,22.3,,00.0,0630.8,30.8
2021-02-02T23:33:00Z,00000200,01000000,-000.20,0000.08,0000.12,0000.03,0000.13,0000.19,0000.14,0000.31,-000.02,15.6,22.3,,00.0,0630.8,30.8
2021-02-02T23:34:00Z,00000200,01000000,0000.55,0000.03,-000.02,0000.50,0000.30,-000.01,0000.03,-000.07,-000.08,15.6,22.3,,00.0,0630.9,30.8
2021-02-02T23:35:00Z,00000200,01000000,0000.10,0000.12,-000.11,0000.21,0000.05,-000.17,0000.02,0000.08,-000.15,15.7,22.3,,00.0,0630.9,30.8
2021-02-02T23:36:00Z,00000200,01000000,0000.28,-000.11,0000.34,-000.26,0000.13,0000.46,-000.18,-000.23,0000.29,15.7,22.3,,00.0,0630.9,30.8
2021-02-02T23:37:00Z,00000200,01000000,0000.03,0000.02,0000.28,0000.19,-000.02,0000.20,-000.12,0000.14,0000.03,15.8,22.4,,00.0,0630.9,30.8
2021-02-02T23:38:00Z,00000200,01000000,0000.13,0000.01,0000.03,0000.60,0000.08,-000.18,-000.08,0000.09,-000.25,15.8,22.4,,00.0,0631.0,30.8
2021-02-02T23:39:00Z,00000200,01000000,-000.42,0000.01,0000.10,0000.25,0000.13,0000.21,-000.12,-000.37,0000.13,15.8,22.4,,00.0,0631.1,30.8
2021-02-02T23:40:00Z,00000200,01000000,0000.22,0000.15,0000.14,-000.42,-000.27,0000.16,-000.18,0000.08,0000.06,15.9,22.4,,00.0,0631.1,30.9
2021-02-02T23:41:00Z,00000200,01000000,-000.14,0000.42,0000.45,-000.06,0000.05,-000.07,-000.12,-000.13,-000.34,15.9,22.4,,00.0,0631.2,30.9
2021-02-02T23:42:00Z,00000200,01000000,-000.07,0000.36,0000.29,-000.10,0000.22,0000.16,0000.24,0000.13,-000.15,15.9,22.5,,00.0,0631.2,30.9
2021-02-02T23:43:00Z,00000200,01000000,0000.43,0000.03,0000.17,0000.11,0000.16,0000.25,-000.48,-000.21,-000.45,15.8,22.4,,00.0,0631.3,30.8
2021-02-02T23:44:00Z,00000200,01000000,-000.06,0000.33,-000.04,0000.09,0000.41,0000.31,-000.07,-000.43,0000.39,15.8,22.4,,00.0,0631.3,30.8
2021-02-02T23:45:00Z,00000200,01000000,-000.02,0000.09,0000.05,-000.13,0000.17,-000.06,0000.06,-000.06,-000.09,15.7,22.4,,00.0,0631.2,30.8
2021-02-02T23:46:00Z,00000200,01000000,0000.55,-000.00,0000.05,0000.35,0000.16,0000.08,-000.08,-000.12,-000.09,15.6,22.3,,00.0,0631.3,30.8
2021-02-02T23:47:00Z,00000200,01000000,-000.50,-000.09,-000.12,0000.33,0000.20,0000.15,-000.12,-000.10,0000.05,15.6,22.3,,00.0,0631.3,30.8
2021-02-02T23:48:00Z,00000200,01000000,0000.25,-000.01,0000.21,-000.02,0000.07,0000.12,0000.22,0000.56,0000.23,15.6,22.3,,00.0,0631.2,30.8
2021-02-02T23:49:00Z,00000200,01000000,-000.34,0000.17,0000.01,-000.19,-000.03,0000.28,0000.29,0000.03,0000.18,15.7,22.3,,00.0,0631.2,30.8
2021-02-02T23:50:00Z,00000200,01000000,-000.02,0000.07,0000.05,0000.05,-000.02,0000.05,0000.07,0000.21,-000.01,15.7,22.4,,00.0,0631.1,30.8
2021-02-02T23:51:00Z,00000200,01000000,0000.10,0000.07,0000.22,0000.49,0000.29,-000.03,0000.01,-000.44,0000.00,15.7,22.4,,00.0,0631.1,30.8
2021-02-02T23:52:00Z,00000200,01000000,-000.13,0000.07,0000.15,0000.32,0000.08,0000.26,0000.19,0000.87,-000.03,15.8,22.4,,00.0,0631.0,30.8
2021-02-02T23:53:00Z,00000200,01000000,0000.13,-000.31,0000.06,0000.36,0000.17,0000.08,0000.30,-000.18,0000.50,15.8,22.4,,00.0,0631.1,30.9
2021-02-02T23:54:00Z,00000200,01000000,0000.34,-000.03,0000.06,0000.03,0000.15,0000.11,-000.13,0000.31,0000.31,15.9,22.4,,00.0,0631.1,30.9
2021-02-02T23:55:00Z,00000200,01000000,-000.11,0000.12,0000.13,0000.09,0000.38,0000.03,0000.29,-000.16,-000.27,15.9,22.5,,00.0,0631.1,30.9
2021-02-02T23:56:00Z,00000200,01000000,-000.20,0000.08,0000.14,0000.23,0000.27,-000.14,-000.25,-000.01,-000.05,15.9,22.5,,00.0,0631.1,30.9
2021-02-02T23:57:00Z,00000200,41000000,,,,,,,0000.82,0001.01,0000.34,16.0,22.5,,00.0,0631.0,30.9
2021-02-02T23:58:00Z,00000200,61000000,,,,,,,-000.18,-000.37,0000.09,15.4,22.6,,00.0,0630.1,30.8
2021-02-02T23:59:00Z,00000200,21000000,,,,,,,-000.08,0000.07,-000.26,15.4,22.7,,00.0,0630.0,30.8
